TimeAKST,TemperatureF,Dew PointF,Humidity,Sea Level PressureIn,VisibilityMPH,Wind Direction,Wind SpeedMPH,Gust SpeedMPH,PrecipitationIn,Events,Conditions,WindDirDegrees,DateUTC
12:16 AM,24.8,23.0,93,29.35,1.5,Calm,Calm,-,N/A,,Unknown,0,2012-12-14 09:16:00
12:36 AM,24.8,24.8,100,29.34,1.8,East,3.5,-,N/A,,Unknown,80,2012-12-14 09:36:00
12:56 AM,24.8,24.8,100,29.33,2.0,Calm,Calm,-,N/A,,Unknown,0,2012-12-14 09:56:00
1:16 AM,24.8,24.8,100,29.33,10.0,Calm,Calm,-,N/A,,Unknown,0,2012-12-14 10:16:00
1:36 AM,24.8,23.0,93,29.32,10.0,Calm,Calm,-,N/A,,Unknown,0,2012-12-14 10:36:00
1:56 AM,24.8,23.0,93,29.32,10.0,Calm,Calm,-,N/A,,Unknown,0,2012-12-14 10:56:00
2:16 AM,21.2,21.2,100,29.32,10.0,Calm,Calm,-,N/A,,Unknown,0,2012-12-14 11:16:00
2:36 AM,24.8,23.0,93,29.31,10.0,Calm,Calm,-,N/A,,Unknown,0,2012-12-14 11:36:00
2:56 AM,23.0,19.4,86,29.31,10.0,Calm,Calm,-,N/A,,Unknown,0,2012-12-14 11:56:00
3:16 AM,23.0,21.2,93,29.31,10.0,Calm,Calm,-,N/A,,Unknown,0,2012-12-14 12:16:00
3:36 AM,21.2,19.4,93,29.30,10.0,SE,4.6,-,N/A,,Unknown,130,2012-12-14 12:36:00
3:56 AM,23.0,21.2,93,29.30,10.0,Calm,Calm,-,N/A,,Unknown,0,2012-12-14 12:56:00
4:16 AM,21.2,19.4,93,29.29,10.0,ENE,3.5,-,N/A,,Unknown,60,2012-12-14 13:16:00
4:36 AM,21.2,17.6,86,29.28,10.0,East,4.6,-,N/A,,Unknown,100,2012-12-14 13:36:00
4:56 AM,19.4,15.8,86,29.28,10.0,East,4.6,-,N/A,,Unknown,100,2012-12-14 13:56:00
5:16 AM,19.4,15.8,86,29.27,10.0,Calm,Calm,-,N/A,,Unknown,0,2012-12-14 14:16:00
5:36 AM,19.4,12.2,74,29.27,10.0,Calm,Calm,-,N/A,,Unknown,0,2012-12-14 14:36:00
5:56 AM,15.8,14.0,93,29.26,10.0,Calm,Calm,-,N/A,,Clear,0,2012-12-14 14:56:00
6:16 AM,17.6,15.8,93,29.25,10.0,NE,8.1,-,N/A,,Clear,40,2012-12-14 15:16:00
6:36 AM,19.4,17.6,93,29.25,10.0,NE,3.5,-,N/A,,Clear,50,2012-12-14 15:36:00
6:56 AM,15.8,12.2,86,29.23,10.0,SSE,4.6,-,N/A,,Clear,150,2012-12-14 15:56:00
7:16 AM,17.6,15.8,93,29.23,10.0,NE,3.5,-,N/A,,Clear,50,2012-12-14 16:16:00
7:36 AM,15.8,8.6,73,29.22,10.0,East,3.5,-,N/A,,Clear,100,2012-12-14 16:36:00
7:56 AM,17.6,15.8,93,29.22,10.0,SSE,4.6,-,N/A,,Clear,160,2012-12-14 16:56:00
8:16 AM,15.8,10.4,79,29.21,10.0,Calm,Calm,-,N/A,,Clear,0,2012-12-14 17:16:00
8:36 AM,15.8,10.4,79,29.21,10.0,SSE,3.5,-,N/A,,Clear,160,2012-12-14 17:36:00
8:56 AM,12.2,8.6,85,29.20,10.0,Calm,Calm,-,N/A,,Scattered Clouds,0,2012-12-14 17:56:00
9:16 AM,17.6,12.2,79,29.19,10.0,Calm,Calm,-,N/A,,Scattered Clouds,0,2012-12-14 18:16:00
9:36 AM,15.8,8.6,73,29.19,10.0,East,3.5,-,N/A,,Scattered Clouds,100,2012-12-14 18:36:00
9:56 AM,10.4,3.2,73,29.18,10.0,Calm,Calm,-,N/A,,Partly Cloudy,0,2012-12-14 18:56:00
10:16 AM,15.8,14.0,93,29.17,10.0,Calm,Calm,-,N/A,,Partly Cloudy,0,2012-12-14 19:16:00
10:36 AM,10.4,8.6,92,29.17,10.0,Calm,Calm,-,N/A,,Partly Cloudy,0,2012-12-14 19:36:00
10:56 AM,15.8,10.4,79,29.16,10.0,North,-9999.0,-,N/A,,Partly Cloudy,0,2012-12-14 19:56:00
11:16 AM,14.0,12.2,93,29.15,10.0,North,-9999.0,-,N/A,,Partly Cloudy,0,2012-12-14 20:16:00
11:36 AM,14.0,12.2,93,29.14,10.0,North,-9999.0,-,N/A,,Partly Cloudy,0,2012-12-14 20:36:00
11:56 AM,17.6,12.2,79,29.13,10.0,Calm,Calm,-,N/A,,Partly Cloudy,0,2012-12-14 20:56:00
12:16 PM,17.6,14.0,86,29.12,10.0,NNW,3.5,-,N/A,,Partly Cloudy,330,2012-12-14 21:16:00
12:36 PM,24.8,19.4,80,29.12,10.0,NE,5.8,-,N/A,,Partly Cloudy,40,2012-12-14 21:36:00
12:56 PM,24.8,17.6,74,29.10,10.0,North,4.6,-,N/A,,Partly Cloudy,10,2012-12-14 21:56:00
1:16 PM,24.8,17.6,74,29.09,10.0,ENE,3.5,-,N/A,,Partly Cloudy,70,2012-12-14 22:16:00
1:36 PM,24.8,17.6,74,29.09,10.0,Calm,Calm,-,N/A,,Partly Cloudy,0,2012-12-14 22:36:00
1:56 PM,24.8,15.8,69,29.08,10.0,ESE,3.5,-,N/A,,Partly Cloudy,120,2012-12-14 22:56:00
2:16 PM,-9999,-9999,N/A,29.07,10.0,East,3.5,-,0.01,,Partly Cloudy,90,2012-12-14 23:16:00
2:36 PM,-9999,-9999,N/A,29.06,10.0,ENE,5.8,-,0.01,,Partly Cloudy,70,2012-12-14 23:36:00
2:56 PM,-9999,-9999,N/A,29.05,10.0,Calm,Calm,-,0.01,,Scattered Clouds,0,2012-12-14 23:56:00
3:16 PM,24.8,23.0,93,29.05,10.0,Calm,Calm,-,N/A,,Scattered Clouds,0,2012-12-15 00:16:00
3:36 PM,26.6,10.4,51,29.04,10.0,South,3.5,-,N/A,,Scattered Clouds,190,2012-12-15 00:36:00
3:56 PM,24.8,15.8,69,29.03,10.0,North,-9999.0,-,N/A,,Scattered Clouds,0,2012-12-15 00:56:00
4:16 PM,24.8,17.6,74,29.02,10.0,North,-9999.0,-,N/A,,Scattered Clouds,0,2012-12-15 01:16:00
4:36 PM,23.0,17.6,80,29.01,10.0,North,-9999.0,-,0.03,,Scattered Clouds,0,2012-12-15 01:36:00
4:56 PM,26.6,12.2,55,29.01,10.0,North,-9999.0,-,0.03,,Scattered Clouds,0,2012-12-15 01:56:00
5:16 PM,24.8,14.0,64,29.00,10.0,North,-9999.0,-,N/A,,Scattered Clouds,0,2012-12-15 02:16:00
5:36 PM,-9999,-9999,N/A,28.99,10.0,North,-9999.0,-,N/A,,Scattered Clouds,0,2012-12-15 02:36:00
5:56 PM,32.0,17.6,55,28.99,7.0,North,-9999.0,-,N/A,,Scattered Clouds,0,2012-12-15 02:56:00
6:16 PM,33.8,17.6,52,28.98,7.0,North,-9999.0,-,N/A,,Scattered Clouds,0,2012-12-15 03:16:00
6:36 PM,33.8,17.6,52,28.97,7.0,North,-9999.0,-,N/A,,Scattered Clouds,0,2012-12-15 03:36:00
6:56 PM,33.8,15.8,48,28.97,7.0,North,-9999.0,-,N/A,,Scattered Clouds,0,2012-12-15 03:56:00
7:16 PM,33.8,14.0,44,28.95,7.0,North,-9999.0,-,N/A,,Scattered Clouds,0,2012-12-15 04:16:00
7:36 PM,35.6,12.2,38,28.94,7.0,North,-9999.0,-,N/A,,Scattered Clouds,0,2012-12-15 04:36:00
7:56 PM,33.8,14.0,44,28.94,7.0,North,-9999.0,-,0.01,,Partly Cloudy,0,2012-12-15 04:56:00
8:16 PM,33.8,14.0,44,28.93,7.0,North,-9999.0,-,N/A,,Partly Cloudy,0,2012-12-15 05:16:00
8:36 PM,35.6,15.8,44,28.93,7.0,North,-9999.0,-,N/A,,Partly Cloudy,0,2012-12-15 05:36:00
8:56 PM,35.6,15.8,44,28.92,7.0,North,-9999.0,-,N/A,,Partly Cloudy,0,2012-12-15 05:56:00
9:16 PM,35.6,14.0,41,28.92,7.0,North,-9999.0,-,N/A,,Partly Cloudy,0,2012-12-15 06:16:00
9:36 PM,35.6,12.2,38,28.90,7.0,North,-9999.0,-,N/A,,Partly Cloudy,0,2012-12-15 06:36:00
9:56 PM,35.6,12.2,38,28.91,7.0,North,-9999.0,-,N/A,,Partly Cloudy,0,2012-12-15 06:56:00
10:16 PM,33.8,12.2,41,28.90,10.0,North,-9999.0,-,N/A,,Clear,0,2012-12-15 07:16:00
10:36 PM,35.6,12.2,38,28.90,10.0,North,-9999.0,-,N/A,,Clear,0,2012-12-15 07:36:00
10:56 PM,35.6,14.0,41,28.89,10.0,North,-9999.0,-,N/A,,Clear,0,2012-12-15 07:56:00
11:16 PM,35.6,12.2,38,28.91,10.0,North,-9999.0,-,N/A,,Partly Cloudy,0,2012-12-15 08:16:00
11:36 PM,35.6,12.2,38,28.88,10.0,North,-9999.0,-,N/A,,Clear,0,2012-12-15 08:36:00
11:56 PM,35.6,10.4,35,28.88,10.0,North,-9999.0,-,N/A,,Clear,0,2012-12-15 08:56:00